[[{"header":{"parameterUnit":"m.s-1","parameterCategory":1,"la1":30.2991,"la2":30.254,"lo1":-89.0895,"lo2":-89.0444,"dy":0.0017,"dx":0.0017,"nx":28,"ny":28,"refTime":"2025-11-11T03:00:00:Z","depth":0,"parameterNumber":2,"parameterNumberName":"U-component_of_WINDS"},"data":[0,0,0,0,0,0,0,0,0,0,0,0,0,0,0,0,0,0,0,0,0,0,0,0,0,0,0,0,0,0,0,0,0,0,0,0,0,0,0,0,0,0,0,0,0,0,0,0,0,0,0,0,0,0,0,0,0,0,2.46,2.4601,0,2.4757,2.4759,2.4761,2.4815,2.4815,2.4814,2.4813,2.4977,2.4982,2.4987,0,0,0,0,0,0,0,0,0,0,0,0,0,2.4347,2.4351,2.4599,2.4601,2.4603,2.4757,2.4759,2.4761,2.4815,2.4814,2.4814,2.4813,2.4976,2.4982,2.4988,0,0,0,0,0,0,0,0,0,0,0,0,0,2.4476,2.4352,2.4599,2.4649,2.4655,2.4756,2.4759,2.4762,2.4815,2.4814,2.4814,2.4813,2.4974,2.4981,2.4988,2.5053,0,0,2.5011,2.5014,0,0,0,0,0,0,0,0,2.4468,2.4485,2.4639,2.4646,2.4652,2.4765,2.473,2.486,2.4816,2.4755,2.4813,2.4812,2.4908,2.4921,2.4952,2.5061,2.5068,2.5012,2.5016,2.502,2.5022,0,0,0,0,0,0,0,2.4459,2.4478,2.4662,2.4642,2.465,2.4664,2.4681,2.4755,2.4835,2.476,2.4764,2.4782,2.4911,2.4945,2.4957,2.507,2.5012,2.5018,2.5023,2.5026,2.5239,2.524,0,0,0,0,0,0,2.4442,2.4471,2.4657,2.4667,2.4556,2.4669,2.4688,2.473,2.4834,2.4849,2.4782,2.4784,2.4933,2.4948,2.4963,2.5045,2.5019,2.5026,2.5031,2.5237,2.5239,2.524,0,0,0,0,0,0,2.4436,2.4458,2.4651,2.457,2.4595,2.4674,2.4721,2.4734,2.4768,2.4851,2.4866,2.4802,2.4933,2.4952,2.503,2.5051,2.503,2.5037,2.5236,2.5238,2.5239,2.5209,0,0,0,0,0,0,2.4429,2.4455,2.448,2.457,2.46,2.4714,2.4722,2.4738,2.478,2.4783,2.4874,2.4888,2.4934,2.5018,2.5037,2.5061,2.5042,2.5234,2.5237,2.5239,2.5208,2.5209,2.521,0,0,0,0,0,2.4419,2.4466,2.4481,2.4504,2.4632,2.4716,2.4733,2.4784,2.4781,2.4808,2.4861,2.4885,2.5045,2.5026,2.5048,2.5074,2.5233,2.5236,2.5239,2.5208,2.5209,2.521,0,0,0,0,0,0,2.4379,2.4479,2.4497,2.4574,2.4636,2.4725,2.4759,2.4783,2.4848,2.4848,2.4909,2.4929,2.5002,2.5046,2.5022,2.5141,2.5141,2.5148,2.511,2.5112,2.5113,2.5101,2.5049,0,0,0,0,0,2.4379,2.4437,2.4522,2.4582,2.4612,2.468,2.4718,2.4752,2.4818,2.4845,2.4904,2.4969,2.5033,2.5075,2.514,2.5215,2.5235,2.5243,2.5244,2.5245,2.525,2.5292,2.5297,2.5249,2.5249,2.5249,0,0,2.4379,2.4441,2.4475,2.4575,2.4627,2.4686,2.4702,2.4764,2.4809,2.4855,2.4931,2.4977,2.5053,2.5129,2.5166,2.5168,2.5268,2.5248,2.5248,2.5253,2.5296,2.53,2.5304,2.5251,2.525,2.525,0,0,2.4411,2.4464,2.4519,2.457,2.4648,2.4692,2.4705,2.479,2.4822,2.4899,2.4934,2.4989,2.51,2.5152,2.5193,2.5242,2.5267,2.5262,2.5267,2.5307,2.5311,2.5315,2.5332,2.5337,2.5267,2.5267,2.5267,0,2.4403,2.4493,2.4545,2.4605,2.4648,2.4691,2.4747,2.4795,2.4889,2.4918,2.4919,2.5058,2.5112,2.5201,2.5212,2.5245,2.5261,2.5252,2.5306,2.531,2.5315,2.5332,2.5338,2.5266,2.5266,2.5266,2.5266,0,2.4478,2.454,2.4576,2.4664,2.4712,2.477,2.4831,2.4872,2.4901,2.4946,2.5024,2.509,2.5168,2.5191,2.5221,2.5284,2.5283,2.5294,2.5295,2.5317,2.5334,2.5341,2.5264,2.5265,2.5265,2.5265,0,0,2.449,2.4605,2.4617,2.4658,2.4746,2.4795,2.4855,2.493,2.4964,2.5027,2.5079,2.5171,2.5181,2.5228,2.5264,2.5299,2.5333,2.5306,2.5309,2.5309,2.5406,2.5397,2.5403,2.535,2.5351,2.5352,2.5399,0,2.4533,2.464,2.4688,2.4774,2.4832,2.4873,2.4925,2.4984,2.5027,2.5083,2.5131,2.5195,2.5204,2.5232,2.5269,2.5321,2.5354,2.5319,2.5399,2.5401,2.5378,2.5413,2.5404,2.5445,2.5406,2.5408,2.5409,0,2.4597,2.4659,2.4751,2.483,2.4856,2.4902,2.4974,2.5027,2.5095,2.5124,2.5174,2.5208,2.5273,2.5269,2.5359,2.5333,2.5369,2.54,2.5402,2.5412,2.5406,2.5423,2.5459,2.5465,2.542,2.5419,2.5418,0,2.4596,2.4702,2.4771,2.4804,2.4899,2.493,2.4971,2.5038,2.508,2.5143,2.517,2.5241,2.5279,2.5333,2.5385,2.5377,2.5469,2.547,2.5495,2.5494,2.5513,2.5511,2.5555,2.5536,2.5536,2.5536,2.5536,0,2.4639,2.4693,2.4771,2.4813,2.4875,2.4929,2.4989,2.5033,2.5092,2.5144,2.5184,2.5231,2.5297,2.5353,2.5394,2.5462,2.5479,2.5505,2.5515,2.5501,2.5498,2.5525,2.5524,2.5537,2.5537,2.5537,2.5536,0,2.4648,2.4702,2.4779,2.4862,2.4884,2.4925,2.4997,2.5039,2.5083,2.5148,2.5166,2.5236,2.5304,2.5361,2.545,2.5478,2.5548,2.556,2.5524,2.553,2.5552,2.5549,2.5615,2.5627,2.5599,2.5599,2.56,0,2.4671,2.4714,2.48,2.4837,2.4877,2.4936,2.4978,2.5033,2.5075,2.5155,2.5188,2.5258,2.5317,2.5424,2.5483,2.5551,2.5566,2.5584,2.5576,2.5561,2.5566,2.5562,2.5567,2.5585,2.5585,2.5585,2.5585,0,2.4707,2.4731,2.479,2.4858,2.4907,2.4963,2.5021,2.5049,2.5114,2.516,2.5229,2.5275,2.5365,2.5434,2.5509,2.5552,2.558,2.5587,2.5596,2.5582,2.556,2.5572,2.5526,2.5585,2.5585,2.5585,2.5585,2.5585,2.4724,2.4763,2.483,2.4893,2.4942,2.4994,2.5038,2.5087,2.5145,2.5222,2.5251,2.5321,2.5388,2.5491,2.5534,2.559,2.5594,2.5608,2.5611,2.5614,2.5611,2.555,2.5604,2.5604,2.5604,2.5604,2.5604,0,2.4762,2.4806,2.4864,2.4942,2.4992,2.5012,2.5076,2.5117,2.5178,2.5237,2.5294,2.5373,2.544,2.5504,2.5574,2.5607,2.5621,2.5623,2.5622,2.5631,2.5604,2.5589,2.5611,2.5611,2.5611,2.5611,2.5611,2.5611,2.4787,2.4854,2.4886,2.4977,2.5021,2.509,2.5125,2.5173,2.522,2.5306,2.5361,2.5402,2.5463,2.5538,2.56,2.5617,2.5641,2.564,2.5661,2.5634,2.5633,2.5632,2.5617,2.5645,2.5645,2.5683,2.5683,2.5683]},{"header":{"parameterUnit":"m.s-1","parameterCategory":1,"la1":30.2991,"la2":30.254,"lo1":-89.0895,"lo2":-89.0444,"dy":0.0017,"dx":0.0017,"nx":28,"ny":28,"refTime":"2025-11-11T03:00:00:Z","depth":0,"parameterNumber":3,"parameterNumberName":"V-component_of_WINDS"},"data":[0,0,0,0,0,0,0,0,0,0,0,0,0,0,0,0,0,0,0,0,0,0,0,0,0,0,0,0,0,0,0,0,0,0,0,0,0,0,0,0,0,0,0,0,0,0,0,0,0,0,0,0,0,0,0,0,0,0,1.5211,1.5211,0,1.5215,1.5215,1.5215,1.5212,1.5211,1.5211,1.5211,1.5215,1.5215,1.5216,0,0,0,0,0,0,0,0,0,0,0,0,0,1.5199,1.52,1.5211,1.5211,1.5211,1.5215,1.5215,1.5215,1.5212,1.5211,1.5211,1.5211,1.5215,1.5215,1.5216,0,0,0,0,0,0,0,0,0,0,0,0,0,1.5204,1.52,1.5211,1.521,1.521,1.5215,1.5215,1.5215,1.5212,1.5211,1.5211,1.5211,1.5215,1.5215,1.5216,1.5222,0,0,1.5217,1.5217,0,0,0,0,0,0,0,0,1.5204,1.5204,1.521,1.521,1.521,1.5213,1.5212,1.5218,1.5212,1.5211,1.5211,1.5211,1.5214,1.5215,1.5216,1.5223,1.5223,1.5217,1.5217,1.5217,1.5217,0,0,0,0,0,0,0,1.5203,1.5204,1.5213,1.521,1.521,1.5209,1.5209,1.5213,1.5214,1.5211,1.5211,1.5211,1.5214,1.5216,1.5216,1.5223,1.5217,1.5217,1.5217,1.5217,1.5234,1.5234,0,0,0,0,0,0,1.5203,1.5204,1.5213,1.5213,1.5206,1.5209,1.521,1.5212,1.5214,1.5214,1.5211,1.5211,1.5215,1.5216,1.5216,1.5224,1.5217,1.5217,1.5218,1.5234,1.5234,1.5234,0,0,0,0,0,0,1.5203,1.5204,1.5212,1.5208,1.5209,1.521,1.5212,1.5212,1.5214,1.5214,1.5214,1.5213,1.5215,1.5216,1.5221,1.5224,1.5218,1.5218,1.5233,1.5234,1.5234,1.5239,0,0,0,0,0,0,1.5203,1.5204,1.5207,1.5208,1.521,1.5217,1.5212,1.5212,1.5214,1.5214,1.5215,1.5216,1.5215,1.522,1.5221,1.5224,1.5218,1.5233,1.5233,1.5234,1.5238,1.5239,1.524,0,0,0,0,0,1.5202,1.5208,1.5207,1.5208,1.5213,1.5217,1.5218,1.5217,1.5215,1.5217,1.5217,1.5215,1.5223,1.5221,1.5222,1.5225,1.5233,1.5233,1.5234,1.5238,1.5239,1.524,0,0,0,0,0,0,1.5208,1.5209,1.5207,1.5214,1.5215,1.5217,1.522,1.5218,1.5221,1.522,1.5219,1.5219,1.5224,1.5225,1.5222,1.5231,1.5228,1.5228,1.523,1.5231,1.5232,1.5232,1.5219,0,0,0,0,0,1.5209,1.5213,1.5213,1.5219,1.522,1.522,1.5222,1.5221,1.5222,1.5223,1.5224,1.5225,1.5228,1.523,1.5232,1.5238,1.5238,1.5241,1.5242,1.5242,1.5243,1.5245,1.5246,1.5236,1.5236,1.5236,0,0,1.5213,1.5214,1.5217,1.522,1.5221,1.5225,1.5221,1.5224,1.5227,1.5224,1.5228,1.5229,1.523,1.5235,1.5238,1.5236,1.5246,1.5243,1.5243,1.5244,1.5246,1.5247,1.5248,1.5236,1.5236,1.5236,0,0,1.5222,1.5224,1.5228,1.5229,1.5231,1.523,1.5231,1.5233,1.5233,1.5237,1.5235,1.5237,1.5242,1.5243,1.5244,1.5252,1.525,1.5252,1.5257,1.5259,1.526,1.526,1.5263,1.5264,1.5253,1.5253,1.5253,0,1.5227,1.5232,1.5231,1.5234,1.5236,1.5233,1.5237,1.5238,1.524,1.5241,1.5239,1.5244,1.5245,1.525,1.5252,1.5253,1.5254,1.5252,1.526,1.526,1.5261,1.5263,1.5264,1.5253,1.5253,1.5253,1.5253,0,1.5237,1.5241,1.5244,1.5246,1.5248,1.5252,1.5251,1.5252,1.5251,1.5251,1.5255,1.5255,1.5258,1.5259,1.5258,1.5263,1.5262,1.526,1.5257,1.5262,1.5264,1.5265,1.5254,1.5254,1.5254,1.5253,0,0,1.525,1.5251,1.5252,1.5252,1.5253,1.5256,1.5259,1.5261,1.5262,1.5264,1.5266,1.527,1.5267,1.5269,1.5267,1.5269,1.5275,1.5267,1.5267,1.5268,1.528,1.5281,1.5282,1.5273,1.5273,1.5274,1.528,0,1.5259,1.5265,1.5263,1.5269,1.5271,1.5268,1.5271,1.5272,1.5271,1.5273,1.5272,1.5275,1.5272,1.5272,1.5274,1.5274,1.5277,1.5273,1.5275,1.5275,1.5275,1.5283,1.5285,1.5291,1.528,1.5281,1.5281,0,1.5269,1.5271,1.5277,1.5276,1.5277,1.528,1.5281,1.5283,1.5283,1.5283,1.5283,1.5282,1.5284,1.5281,1.5284,1.5282,1.5282,1.5282,1.5282,1.5282,1.5278,1.5283,1.5293,1.5293,1.5282,1.5282,1.5282,0,1.5277,1.5281,1.5284,1.5285,1.5285,1.5286,1.5286,1.5287,1.5287,1.5288,1.5289,1.529,1.5291,1.5291,1.529,1.5287,1.5293,1.529,1.5292,1.5292,1.5294,1.5294,1.5303,1.5294,1.5294,1.5294,1.5294,0,1.5287,1.529,1.5288,1.529,1.5294,1.5292,1.5295,1.5295,1.5295,1.5297,1.5294,1.5296,1.5293,1.5295,1.5293,1.5296,1.5296,1.5295,1.5295,1.5296,1.5296,1.5296,1.5295,1.5295,1.5295,1.5294,1.5294,0,1.5296,1.5295,1.5299,1.5298,1.5298,1.53,1.5299,1.5301,1.53,1.5302,1.5303,1.5301,1.5302,1.5301,1.5302,1.5301,1.5304,1.5303,1.5304,1.5304,1.5306,1.5306,1.5316,1.5317,1.5308,1.5308,1.5308,0,1.5302,1.5305,1.5304,1.5305,1.5305,1.5307,1.5307,1.5305,1.5306,1.5306,1.5308,1.5309,1.5309,1.5311,1.531,1.5311,1.531,1.5313,1.531,1.531,1.5309,1.5309,1.5309,1.5314,1.5314,1.5314,1.5314,0,1.5313,1.5312,1.5313,1.5314,1.5314,1.5315,1.5315,1.5316,1.5314,1.5315,1.5316,1.5316,1.5317,1.5318,1.5318,1.5317,1.5315,1.5315,1.5316,1.5316,1.5316,1.5316,1.5306,1.5315,1.5315,1.5315,1.5315,1.5315,1.5321,1.5322,1.5322,1.5323,1.5323,1.5323,1.5324,1.5323,1.5324,1.5324,1.5323,1.5324,1.5324,1.5323,1.5323,1.5324,1.5322,1.5323,1.5323,1.5324,1.5324,1.5316,1.5324,1.5324,1.5324,1.5324,1.5324,0,1.5331,1.533,1.5331,1.5331,1.5332,1.5329,1.5329,1.533,1.5331,1.533,1.5331,1.5332,1.5332,1.5331,1.5331,1.5332,1.533,1.5332,1.5332,1.5331,1.5325,1.5325,1.5333,1.5333,1.5333,1.5333,1.5333,1.5333,1.5336,1.5338,1.5337,1.5339,1.5339,1.534,1.534,1.5339,1.5339,1.534,1.534,1.5339,1.5338,1.5338,1.5338,1.5338,1.5338,1.5339,1.5338,1.5333,1.5332,1.5331,1.533,1.5339,1.5339,1.5344,1.5344,1.5344]}]]